Location: Unspecified
(0.0000°N, 0.0000°E)
Time: 19:46:10
(UTC+00:00)

N. Korean satellite - Pass Details

Date: 13 September 2019
Orbit: 455 x 509 km, 97.2° (Epoch: 17 September)

Event Time Altitude Azimuth Distance (km) Brightness Sun altitude
Rises 18:20:34 0° 199° (SSW) 2,611 10.5 -6.1°
Reaches altitude 10° 18:23:25 10° 223° (SW) 1,720 10.0 -6.9°
Maximum altitude 18:25:32 15° 258° (WSW) 1,440 10.3 -7.4°
Drops below altitude 10° 18:27:39 10° 294° (WNW) 1,706 10.7 -7.9°
Sets 18:30:27 0° 318° (NW) 2,577 11.0 -8.6°
